Starlink 11476

operational
NORAD ID: 62228 Int'l Des: 2024-231 Owner: SPXS Country: US Constellation: starlink
LEOCIRCULAR

Über Starlink 11476

Beschreibung wird geladen...

Live-Position

3D-Globus wird geladen...

Nächste Überflüge

Höhenverlauf

Altitude vs Time

uPlot chart will show altitude changes over time

Zweizeiliger Elementsatz

1 62228U 24231L 25305.50853810 .00190886 00000-0 15446-2 0 9991
2 62228 53.1576 12.8235 0002378 40.2549 319.8645 15.69706432 53292
Epoch: 1. Nov. 2025 • Age: 25 hours

Aktueller Status

Höhe 372.8 km
Geschwindigkeit 7.68 km/s
Subsatellitenpunkt -38.71°S, 22.28°W
Startdatum 5. Dez. 2024
Alter 0.9 years
Typ internet

Technische Details

Klassifizierung Payload
Masse 960.00 kg
Trockenmasse 910.00 kg
Gesamtmasse 960.00 kg
Länge 0.30 m
Durchmesser 4.10 m
Spannweite 29.00 m
Form Box + pan
Hersteller SPXS
Bus-Typ Starlink V2MD
Phasenstatus In Orbit
Besitzer/Staat SPXS/US

Große Konstellationen

Loading constellations...